This is the latest recevied weather packets stored in our database for station/object KR8N. If no packets are shown the sender has not sent any weather packets the latest 10 day(s).
| Time | Temp. | Humidity | Pressure | Rain* | Wind** | Luminosity | Snow |
|---|---|---|---|---|---|---|---|
| 1777634455 | 1.11° C | 97% | 1017.7 hPa | 0 mm | - | 27 W/m² | - |
| 1777634151 | 1.11° C | 97% | 1017.5 hPa | 0 mm | - | 26 W/m² | - |
| 1777633848 | 0.56° C | 98% | 1017.6 hPa | 0 mm | - | 24 W/m² | - |
| 1777633546 | 0.56° C | 97% | 1017.3 hPa | 0 mm | - | 24 W/m² | - |
| 1777633244 | 0.56° C | 97% | 1017.3 hPa | 0 mm | - | 17 W/m² | - |
| 1777632941 | 0.56° C | 97% | 1017.5 hPa | 0 mm | - | 13 W/m² | - |
| 1777632637 | 0.56° C | 97% | 1017.5 hPa | 0 mm | - | 10 W/m² | - |
| 1777632333 | 0° C | 97% | 1017.1 hPa | 0 mm | - | 8 W/m² | - |
| 1777632031 | 0° C | 97% | 1017.3 hPa | 0 mm | - | 6 W/m² | - |
| 1777631729 | 0° C | 97% | 1017.4 hPa | 0 mm | - | 4 W/m² | - |
| 1777631426 | 0° C | 97% | 1017.3 hPa | 0 mm | - | 3 W/m² | - |
| 1777631122 | 0° C | 97% | 1017.5 hPa | 0 mm | - | 2 W/m² | - |
| 1777630820 | 0° C | 97% | 1017.5 hPa | 0 mm | - | 1 W/m² | - |
| 1777630516 | 0° C | 97% | 1017.4 hPa | 0 mm | - | 0 W/m² | - |
| 1777630213 | 0° C | 97% | 1017.5 hPa | 0 mm | - | 0 W/m² | - |
| 1777629911 | 0.56° C | 97% | 1017.4 hPa | 0 mm | - | 0 W/m² | - |
| 1777629608 | 0.56° C | 97% | 1017.5 hPa | 0 mm | - | 0 W/m² | - |
| 1777629304 | 0.56° C | 97% | 1017.6 hPa | 0 mm | - | 0 W/m² | - |
| 1777628999 | 0.56° C | 97% | 1017.5 hPa | 0 mm | - | 0 W/m² | - |
| 1777628697 | 0.56° C | 97% | 1017.5 hPa | 0 mm | - | 0 W/m² | - |
| 1777628394 | 0.56° C | 97% | 1017.3 hPa | 0 mm | - | 0 W/m² | - |
| 1777628089 | 0.56° C | 97% | 1017.4 hPa | 0 mm | - | 0 W/m² | - |
| 1777627784 | 0.56° C | 97% | 1017.6 hPa | 0 mm | - | 0 W/m² | - |
| 1777627483 | 0.56° C | 97% | 1017.6 hPa | 0 mm | - | 0 W/m² | - |
| 1777627179 | 0.56° C | 97% | 1017.3 hPa | 0 mm | - | 0 W/m² | - |
* Rain latest hour (hover to see other rain measurements)
** Current wind speed in m/s (hover to see current wind gust speed)